Weather in Lozovyi Yar

Ukraine / Kyiv Region     50°19′35″N   31°59′39″E
temp.,
°C
wind,
m/s
gust,
m/s
humid.,
%
clouds,
%
prec.,
mm/h
press.,
hPa
HPBL,
m
7 march, sun
sun723:00−8w33800 0.0 102522
02:00−8wsw34810 0.0 102555
05:00−7sw510850 0.0 1022184
08:00−5sw7148613 0.0 1019391
11:000wsw91480100 0.0 10171044
14:00+1wsw81582100 0.0 10141240
17:00+1wsw7148199 0.0 1012995
20:00+1w7158199 0.0 1011859
8 march, mon
mon823:00−1wsw6148659 0.0 1011517
02:00−1w7139177 0.1 1010736
05:00−2wsw6129097 0.1 1009546
08:00−1wnw599594 0.3 1010688
11:00−1wnw698095 0.1 10111081
14:00−1wnw597651 0.1 10111314
17:00−2w4118233 0.1 1012340
20:00−6nw468145 0.2 101488
9 march, tue
tue923:00−8nw34850 0.0 101668
02:00−8wnw34870 0.0 101648
05:00−8wnw359223 0.0 101780
08:00−6nnw369658 0.1 1019318
11:00−5nnw358547 0.0 1020525
14:00−5nnw458233 0.0 1021724
17:00−7n228888 0.0 102121
20:00−9nne118794 0.0 102321
10 march, wed
wed1023:00−10e118698 0.0 102421
02:00−11sse018786 0.0 102421
05:00−11ese118798 0.0 102421
08:00−9ese229199 0.0 102545
11:00−6se238253 0.0 1025273
14:00−4sse227753 0.0 1024399
17:00−7se11836 0.0 102421
20:00−9ese22813 0.0 102521
11 march, thu
thu1123:00−10sse22780 0.0 102621
02:00−10sse22744 0.0 102621
05:00−10s337654 0.0 102622
08:00−8sse368127 0.0 1026106
11:00−2s597862 0.0 1025501
14:000s598173 0.0 1024887
17:00−2s5108350 0.0 1022244
20:00−3s6147773 0.0 1021336